Etusivu
METAR-TAF:

METAR-TAF

Lentoasemat :

Amman, Jordania

Leveyspiiri: 31-59N, Pituuspiiri: 035-59E, korkeus merenpinnasta: 767 m

Tämänhetkinen sää

Tämä raportti tehtiin 55 minuuttia sitten, kello 15.00 UTC
Tuuli 16 kn lännestä
Lämpötila 31°C
Kosteus 33%
Ilmanpaine 1009 hPa
Näkyvyys: 5000 m
Muutamia pilviä 4000 ft:n korkeudessa
pölymyrsky

METAR: OJAM 231500Z 28016KT 5000 BLDU FEW040 31/13 Q1009 NOSIG

Aika: 18:55 (15:55 UTC)

Sääennuste

Tämä raportti tehtiin 4 tuntia ja 55 minuuttia sitten, kello 11.00 UTC
Ennuste voimassa 23. päivästä klo 12 UTC - 24. päivään klo 18 UTC
Tuuli 8 kn lännestä/luoteesta
Näkyvyys: 5000 m
Muutamia pilviä 3000 ft:n korkeudessa
usvaa
Todennäköisyys 40% :
Ajoittain
23. päivästä klo 12 UTC - 24. päivään klo 18 UTC
Tuuli 16 kn lännestä/luoteesta
Näkyvyys: 4000 m
pölymyrsky

TAF: OJAM 231100Z 2312/2418 29008KT 5000 HZ FEW030 PROB40 TEMPO 2312/2418 30016KT 4000 BLDU

Säähavainnot ja -ennusteet yli 4000 lentoasemalta (METAR- ja TAF-raportit).

Käytössä olevat sääasemat on merkitty karttaan keltaisilla ja punaisilla pisteillä.

Aseta hiiri pisteen päälle nähdäksesi sääaseman nimen.

Klikkaa sitten nähdäksesi säähavainnot ja -ennusteet.

Kartan vaihtaminen: klikkaa mustalla rastilla varustettuja vihreitä pisteitä, niin voit zoomata sisään; viivalla varustettua vihreää pistettä, niin voit zoomata ulos tai vihreitä nuolia, niin pääset viereisille kartoille.


METAR-TAF: